Content
SEND FEEDBACK

Daily
Averages
Monthly
Summary
Canada

QUEBEC CITY, QUEBEC


Home > North America > Canada > Quebec
Elevation: 239 feet     Latitude: 46 48N     Longitude: 071 23W

WEATHER
 
SELECT A DAY
Number of Records: 192,085;   Date Range: 6/30/96 - 7/28/14
 
SHARE

PRINT THIS DATA

[ ← Previous Day ]
WEATHER ALMANAC - MARCH 8, 2013
[ Next Day → ]
[ °C ]   °F
Weather ElementAverageHighLow
Temperature30.7 °F35.6 °F (3:00 pm)28 °F (7:00 am)
Dewpoint24.8 °F28.4 °F (5:00 pm)21.2 °F (3:00 am)
Humidity76.9 %93 % (9:00 pm)59 % (1:00 pm)
Barometer30.34 in30.39 in (8:00 pm)30.29 in (1:00 am)
Wind Speed12.8 mph20.7 mph (4:00 am)
Wind Gust33.4 mph (10:00 am)
Weather ElementAverage
Visibility23 mi
Wind DirectionENE (67.7 °)

Weather ElementTotal
Precipitation---
Heating Degree Days33.2 (Base 65)
Averaged from 31 records on March 8, 2013
WEATHER CONDITIONS BREAKOUT
WIND DIRECTION BREAKOUT
WEATHER BY HOUR - MARCH 8, 2013
[ °C ]   °F
Local TimeTemperatureDewpointHumidityBarometerVisibilityWind DirectionWind SpeedGust SpeedPrecipitationEventsConditions
1:00 AM30.0 °F22.0 °F63 %30.29 inENE (60°)6.9 mph
1:00 AM30.2 °F23.0 °F75 %30.30 in15.0 miENE (60°)16.1 mphMostly Cloudy
2:00 AM28.4 °F23.0 °F80 %30.30 in15.0 miENE (70°)15.0 mph20.7 mphMostly Cloudy
3:00 AM28.4 °F21.2 °F74 %30.30 in15.0 miENE (70°)16.1 mph21.9 mphMostly Cloudy
4:00 AM29.0 °F22.0 °F65 %30.29 inENE (60°)11.5 mph
4:00 AM28.4 °F21.2 °F74 %30.30 in15.0 miENE (60°)20.7 mphMostly Cloudy
5:00 AM28.4 °F23.0 °F80 %30.30 in15.0 miENE (60°)18.4 mph32.2 mphMostly Cloudy
6:00 AM28.4 °F21.2 °F74 %30.32 in25.0 miENE (60°)20.7 mph28.8 mphMostly Cloudy
7:00 AM28.0 °F22.0 °F71 %30.33 inENE (70°)9.2 mph
7:00 AM28.4 °F23.0 °F80 %30.33 in25.0 miENE (60°)13.8 mph20.7 mphMostly Cloudy
8:00 AM30.2 °F23.0 °F75 %30.34 in30.0 miENE (70°)17.3 mphMostly Cloudy
9:00 AM30.2 °F23.0 °F75 %30.35 in30.0 miENE (70°)18.4 mph29.9 mphMostly Cloudy
10:00 AM32.0 °F24.0 °F62 %30.34 inEast (80°)15.0 mph
10:00 AM32.0 °F24.8 °F75 %30.36 in30.0 miENE (70°)20.7 mph33.4 mphMostly Cloudy
11:00 AM32.0 °F24.8 °F75 %30.36 in30.0 miENE (70°)16.1 mph28.8 mphMostly Cloudy
12:00 PM32.0 °F26.6 °F80 %30.35 in30.0 miENE (70°)12.7 mph20.7 mphMostly Cloudy
1:00 PM35.0 °F26.0 °F59 %30.32 inENE (70°)10.4 mph
1:00 PM33.8 °F26.6 °F75 %30.34 in30.0 miENE (70°)10.4 mph18.4 mphMostly Cloudy
2:00 PM33.8 °F26.6 °F75 %30.34 in30.0 miENE (60°)15.0 mphMostly Cloudy
3:00 PM35.6 °F26.6 °F70 %30.34 in30.0 miENE (70°)18.4 mphMostly Cloudy
4:00 PM34.0 °F27.0 °F67 %30.32 inEast (80°)9.2 mph
4:00 PM33.8 °F26.6 °F75 %30.34 in30.0 miEast (80°)12.7 mph18.4 mphMostly Cloudy
5:00 PM32.0 °F28.4 °F87 %30.35 in30.0 miEast (80°)9.2 mphMostly Cloudy
6:00 PM32.0 °F26.6 °F80 %30.37 in30.0 miENE (70°)11.5 mphMostly Cloudy
7:00 PM31.0 °F27.0 °F81 %30.37 inENE (70°)4.6 mph
7:00 PM30.2 °F26.6 °F86 %30.38 in15.0 miENE (60°)11.5 mphMostly Cloudy
8:00 PM30.2 °F26.6 °F86 %30.39 in15.0 miENE (60°)11.5 mphPartly Cloudy
9:00 PM28.4 °F26.6 °F93 %30.39 in15.0 miEast (80°)6.9 mphPartly Cloudy
10:00 PM29.0 °F27.0 °F87 %30.38 inENE (70°)3.5 mph
10:00 PM28.4 °F26.6 °F93 %30.39 in15.0 miENE (70°)6.9 mphClear
11:00 PM28.4 °F26.6 °F93 %30.38 in15.0 miNE (50°)5.8 mphPartly Cloudy
Hourly data recorded from CYQB, located miles away from Quebec City, Quebec







STORIES FROM OUR PARTNERS